Location: Aeschlenberg
(46.7866°N, 7.2612°E)
Time: 23:19:04
(UTC+00:00)

Daily predictions for brighter satellites

Satellite Brightness Start Highest point End
(mag) Time Altitude Azimuth Time Altitude Azimuth Time Altitude Azimuth
Cosmos 1536 Rocket 3.5 17:59:50 10° N 18:04:11 76° E 18:08:30 10° SSE
Cosmos 1378 3.1 18:00:46 10° N 18:04:33 86° E 18:08:18 10° S
ATLAS 2AS CENTAUR R/B 3.0 17:59:06 10° NW 18:06:54 75° NE 18:14:01 10° SE
NOSS 0 Rocket 4.3 18:02:01 10° NNW 18:08:00 47° NE 18:13:58 10° SE
YAOGAN 1 3.1 18:07:25 10° S 18:11:43 64° WSW 18:16:02 10° NNW
CZ-4 R/B 2.7 18:08:52 10° S 18:12:35 44° W 18:16:23 10° NNW
USA 186 3.2 18:13:26 10° ESE 18:16:08 22° ENE 18:18:51 10° NNE
Nadezhda 1 Rocket 4.0 18:11:06 10° SSE 18:16:59 55° E 18:22:54 10° NNE
Cosmos 2327 Rocket 4.5 18:10:46 10° N 18:17:00 67° E 18:23:06 10° SSE
ASTEX 1 4.1 18:13:04 10° NNE 18:17:27 32° E 18:21:48 10° SSE
Cosmos 1461 2.7 18:15:21 10° SSW 18:19:22 85° SE 18:23:20 10° NE
Cosmos 1707 3.4 18:16:09 10° N 18:19:45 34° ENE 18:23:21 10° SE
SL-16 R/B 3.8 18:16:41 10° N 18:20:43 19° NE 18:24:38 10° E
COSMOS 2455 3.7 18:20:00 10° NW 18:25:50 53° WSW 18:31:38 10° S
Cosmos 2219 Rocket 2.2 18:20:37 10° NNW 18:26:15 90° WSW 18:31:52 10° SSE
Timation 2 Rocket 4.2 18:22:42 10° SSW 18:29:19 84° WNW 18:35:41 10° NNE
SJ-6B 3.7 18:27:10 10° SE 18:30:52 33° ENE 18:34:34 10° N
COSMO-SKYMED 1 4.5 18:28:13 10° N 18:32:10 35° WNW 18:36:07 10° SW
ERBS 4.3 18:30:17 10° NNW 18:32:50 19° NNE 18:35:13 11° ENE
Cosmos 1300 Rocket 4.5 18:29:46 10° SSW 18:33:59 52° WNW 18:38:13 10° N
COSMOS 2428 2.9 18:28:26 10° NNW 18:34:08 78° WSW 18:39:48 10° SSE
NOAA 11 4.3 18:29:41 10° SSE 18:35:11 82° WSW 18:40:43 10° NNW
Aureole 1 Rocket 3.7 18:30:08 10° NNW 18:35:21 62° WSW 18:39:17 10° S
H-2A R/B 2.7 18:33:14 12° SE 18:37:12 32° ENE 18:41:38 10° N
Cosmos 2360 Rocket 4.5 18:33:53 10° NW 18:38:28 26° WSW 18:43:04 10° SSW
ISS -2.2 18:36:40 10° S 18:38:57 17° SE 18:39:18 17° SE
MOS 1 4.3 18:33:52 10° SSE 18:39:32 74° ENE 18:45:14 10° NNW
SJ-11-01 4.4 18:37:49 10° SSE 18:42:28 59° ENE 18:47:10 10° N
CZ-2D R/B 4.2 18:40:08 10° S 18:43:49 49° W 18:47:31 10° NNW
Cosmos 1939 Rocket 3.5 18:41:09 10° S 18:44:56 56° W 18:48:46 10° NNW
Cosmos 1190 Rocket 4.2 18:45:04 10° NNW 18:50:17 53° ENE 18:54:14 17° SE
Lacrosse 5 rocket 2.7 18:48:16 10° S 18:49:55 17° SE 18:49:55 17° SE
SAR-Lupe-2 3.4 18:48:21 10° NNE 18:51:57 75° ESE 18:55:30 10° S
Cosmos 1544 3.6 18:50:25 10° SSW 18:53:57 61° W 18:57:33 10° N
Cosmos 2227 Rocket 2.8 18:49:10 10° SSE 18:54:09 33° ESE 18:59:10 10° NE
Cosmos 2219 3.3 18:49:54 10° S 18:55:31 57° ESE 19:01:09 10° NNE
Cosmos 1455 Rocket 3.7 18:54:39 15° SSE 18:57:41 33° E 19:01:41 10° NNE
ARGOS 3.4 18:53:49 16° SE 18:57:51 47° ENE 19:03:01 10° N
Cosmos 2341 Rocket 3.9 18:52:54 10° N 18:59:10 69° E 19:05:20 10° SSE
Cosmos 2181 Rocket 4.2 18:55:16 10° SSE 19:01:13 49° E 19:07:17 10° NNE
CZ-2C R/B 3.5 18:57:20 10° NNE 19:01:49 71° ESE 19:06:13 10° S
Cosmos 389 Rocket 2.3 18:59:03 10° N 19:02:29 72° ENE 19:04:29 23° SSE
Cosmos 2297 Rocket 2.5 18:59:32 10° S 19:04:49 42° ESE 19:10:07 10° NE
Meteor 1-15 Rocket 4.2 18:59:26 10° S 19:05:08 65° E 19:10:57 10° NNE
Cosmos 2084 Rocket 4.1 19:02:16 10° S 19:06:16 33° ESE 19:07:33 28° E
GEOS 3 Rocket 4.1 19:01:21 10° SSE 19:06:17 56° SW 19:11:20 10° NW
Ariane Rocket 4.3 19:04:34 10° SSW 19:09:19 40° W 19:14:07 10° NNW
FREGAT/IRIS 4.0 19:11:28 10° SSW 19:14:04 35° W 19:16:42 10° NNW
NOSS 3-4 (A) 4.1 19:07:17 10° NW 19:14:16 70° SW 19:20:46 15° SSE
NOSS 3-4 (C) 4.1 19:07:23 10° NW 19:14:22 71° SW 19:20:50 15° SSE
Cosmos 1437 Rocket 3.3 19:10:53 10° N 19:14:24 34° ENE 19:14:27 34° ENE
Cosmos 614 Rocket 3.9 19:09:40 10° NNW 19:14:56 88° ENE 19:18:31 21° SSE
Cosmos 405 Rocket 2.5 19:11:19 10° S 19:14:57 62° E 19:18:38 10° NNE
Cosmos 1626 Rocket 4.5 19:12:39 10° NNE 19:16:27 29° ENE 19:16:27 29° ENE
Cosmos 2218 Rocket 4.1 19:11:13 10° N 19:17:32 58° ENE 19:21:36 22° SSE
MetOp-A 4.4 19:16:20 30° ESE 19:18:36 47° ENE 19:23:44 10° N
Cosmos 2056 Rocket 3.5 19:14:18 10° S 19:19:40 67° ESE 19:25:02 10° NNE
Okean 1 Rocket 4.4 19:15:49 10° SSW 19:19:55 41° WNW 19:24:05 10° N
Cosmos 2366 rocket 4.1 19:14:43 10° N 19:21:01 58° ENE 19:24:45 25° SSE
Cosmos 407 Rocket 3.5 19:16:21 10° NNW 19:21:30 79° WSW 19:25:02 20° SSE
Resurs 1-3 3.6 19:21:40 38° SE 19:23:06 59° ENE 19:27:26 10° N
GENESIS II 4.3 19:21:48 10° NNW 19:25:55 68° NE 19:26:44 52° ESE
Cosmos 2333 Rocket 3.9 19:22:17 10° NW 19:27:14 31° WSW 19:32:10 10° SSW
Meteor 1-4 Rocket 2.6 19:24:27 10° NNW 19:28:00 74° W 19:29:06 41° S
Meteor 2-17 Rocket 4.4 19:21:58 10° N 19:28:06 89° E 19:33:19 14° S
Meteor 1-24 Rocket 4.0 19:22:29 10° N 19:28:09 52° ENE 19:30:19 35° SE
Resurs 01 Rocket 1.8 19:29:23 46° ESE 19:30:11 53° ENE 19:34:32 10° N
In-Cosmos 22 4.2 19:25:23 10° NNW 19:30:45 76° W 19:35:25 14° S
SL-08 RB Rocket 3.7 19:29:16 40° SE 19:30:48 66° ENE 19:35:27 10° N
SL-8 Rocket 3.9 19:25:00 10° N 19:31:14 84° E 19:35:53 19° S
Cosmos 1624 Rocket 3.9 19:26:22 10° SSW 19:31:34 85° ESE 19:36:48 10° NNE
CZ-2C R/B 3.2 19:29:59 37° SE 19:31:53 59° ENE 19:37:19 10° N
RESURS DK-1 4.0 19:29:22 10° N 19:32:24 21° NE 19:32:24 21° NE
USA 234 4.4 19:28:42 10° ENE 19:34:34 37° N 19:40:28 10° WNW
ADEOS Rocket 3.4 19:27:23 10° NNE 19:34:44 72° ESE 19:42:29 10° S
Cosmos 2237 Rocket 2.5 19:29:13 10° NNW 19:34:53 66° WSW 19:38:28 23° S
SL-24 R/B 4.3 19:34:08 48° ESE 19:35:09 61° ENE 19:40:03 10° N
Cosmos 1602 Rocket 4.3 19:33:09 10° N 19:36:39 36° NE 19:36:39 36° NE
SL-8 R/B 3.8 19:33:36 10° W 19:38:24 72° N 19:39:50 44° ENE
ERS-1 Rocket 4.5 19:40:38 21° NE 19:40:38 21° NE 19:43:53 10° NNE
Cosmos 1674 2.8 19:36:43 10° N 19:39:57 57° NE 19:39:57 57° NE
BREEZE-M DEB (TANK) 3.8 19:29:10 10° WNW 19:40:41 60° SW 19:41:49 44° SSE
Cosmos 1805 4.0 19:42:10 38° NE 19:42:10 38° NE 19:44:47 10° NNE
Cosmos 1954 Rocket 3.9 19:38:05 10° NNW 19:43:21 82° ENE 19:44:49 48° SSE
Cosmos 1980 4.3 19:38:43 10° NW 19:44:13 52° WSW 19:47:47 21° S
Cosmos 1959 Rocket 4.4 19:38:47 10° N 19:44:57 87° E 19:48:25 28° S
Cosmos 1140 Rocket 3.6 19:40:44 10° NNW 19:45:54 73° WSW 19:47:56 37° S
SPOT 3 Rocket 4.3 19:41:14 12° S 19:45:55 49° W 19:50:56 10° NNW
Spot 2 Rocket 3.7 19:45:58 47° E 19:46:16 48° ENE 19:51:07 10° N
USA 186 4.1 19:44:29 12° SSW 19:46:56 25° W 19:49:51 10° NW
Meteor 2-5 Rocket 3.8 19:44:38 10° NNW 19:50:29 79° W 19:53:38 29° S
ATLAS 2AS CENTAUR R/B 4.4 19:50:58 10° NW 19:57:11 29° WSW 20:02:59 10° SSW
KORONAS-FOTON 4.4 19:59:53 10° NNW 20:02:51 52° NNW 20:02:51 52° NNW
Meteor 1-22 Rocket 4.3 20:01:13 31° S 20:04:22 83° E 20:10:31 10° NNE
SL-16 R/B 2.1 19:59:58 10° NNW 20:05:41 88° ENE 20:06:31 67° SSE
ERBS 4.1 20:06:20 10° NW 20:08:14 31° NW 20:08:14 31° NW
Cosmos 1452 Rocket 4.1 20:15:45 44° NE 20:15:45 44° NE 20:19:22 10° NNE
ISS -0.8 20:12:00 10° WSW 20:12:15 12° WSW 20:12:15 12° WSW
H-2A R/B 3.3 20:13:51 20° SSW 20:16:34 35° W 20:21:10 10° NNW
SPOT 5 4.4 20:18:58 26° NNE 20:18:58 26° NNE 20:21:49 10° N
CZ-2C R/B 3.4 20:14:09 10° NNE 20:17:56 40° NE 20:17:56 40° NE
Cosmos 2082 3.7 20:15:04 10° SSW 20:20:48 84° WNW 20:26:35 10° NNE
Meteor 2-12 Rocket 4.4 20:22:01 10° N 20:27:50 68° ENE 20:27:50 68° ENE
Cosmos 1934 Rocket 4.4 20:26:36 10° N 20:31:34 46° NE 20:31:34 46° NE
MetOp-B 4.2 20:33:25 74° W 20:33:25 74° W 20:38:37 10° NNW
Cosmos 2227 Rocket 3.3 20:32:42 10° SW 20:38:05 44° NW 20:43:30 10° NNE
USA 245 4.4 20:45:55 80° WNW 20:45:55 80° WNW 20:51:33 10° NNW
Terra 3.6 20:49:57 24° NNE 20:49:57 24° NNE 20:52:02 10° N
Cosmos 2297 Rocket 3.6 20:43:46 10° WSW 20:48:56 36° NW 20:54:09 10° NNE
Nadezhda 3 Rocket 4.1 20:57:56 70° NW 20:57:56 70° NW 21:03:50 10° N
Resurs 01 Rocket 4.0 21:06:58 17° W 21:07:00 17° W 21:09:58 10° NW
Cosmos 1943 4.1 21:02:44 10° NNW 21:06:39 43° N 21:06:39 43° N
USA 234 4.0 21:16:03 43° NNE 21:16:44 44° NNE 21:22:52 10° NW
CZ-4C R/B 4.2 21:11:28 10° NNW 21:17:07 28° NNE 21:18:31 26° NE
ERS-1 Rocket 4.5 21:20:39 33° NW 21:20:39 33° NW 21:23:32 10° NNW
Cosmos 2263 Rocket 4.4 22:50:06 21° N 22:50:06 21° N 22:52:08 10° NNE
CZ-4C R/B 4.0 22:59:46 10° NW 23:03:40 37° NNW 23:03:40 37° NNW
